Location: Carrières
(48.9495°N, 2.0407°E)
Time: 23:06:36
(UTC+00:00)

Cosmos 1980 Rocket - Pass Details

Date: 28 January 2023
Orbit: 828 x 850 km, 71.0° (Epoch: 01 April)

Event Time Altitude Azimuth Distance (km) Brightness Sun altitude
Rises 18:33:10 0° 217° (SW) 3,376 6.0 -18.2°
Reaches altitude 10° 18:35:37 10° 220° (SW) 2,449 5.3 -18.6°
Maximum altitude 18:41:12 63° 302° (WNW) 939 2.6 -19.5°
Enters shadow 18:46:31 12° 23° (NNE) 2,354 4.2 -20.3°
